カタログに戻る

STARLINK-35468

運用中通信VLEO
NORAD 66118·PAYLOAD·🇺🇸 United States

打ち上げ Oct 22, 2025 から Vandenberg Space Force Base

Loading…

次のパス (今後24時間)

TLE

最新Source: CelesTrak SupGP

元期: Sep 15, 2026, 03:54 UTC

1 66118C 25237E   26258.16298611 -.00050347  00000+0 -14875-2 0  2583
2 66118  53.1582 238.4611 0001340  87.5512 322.5815 15.34416934    16

AllMySatでSTARLINK-35468をリアルタイム追跡

Download on the App Store